Satellite: MO-46
Catalog number: 26548
Epoch time:      04224.97960729
Element set:     948
Inclination:       64.5564 deg
RA of node:       156.2207 deg
Eccentricity:    0.0014764
Arg of perigee:   342.3385 deg
Mean anomaly:      17.7167 deg
Mean motion:   14.82365821 rev/day
Decay rate:       2.85e-06 rev/day^2
Epoch rev:           20944
Checksum:              333

Satellite: SO-42
Catalog number: 26549
Epoch time:      04225.19887315
Element set:     940
Inclination:       64.5522 deg
RA of node:       176.0302 deg
Eccentricity:    0.0014752
Arg of perigee:    27.8172 deg
Mean anomaly:     332.3718 deg
Mean motion:   14.78719148 rev/day
Decay rate:       2.00e-06 rev/day^2
Epoch rev:           20906
Checksum:              295

Satellite: NO-44
Catalog number: 26931
Epoch time:      04225.66973604
Element set:     830
Inclination:       67.0545 deg
RA of node:       302.3468 deg
Eccentricity:    0.0006284
Arg of perigee:   273.9686 deg
Mean anomaly:      86.0730 deg
Mean motion:   14.29313784 rev/day
Decay rate:        4.7e-07 rev/day^2
Epoch rev:           14967
Checksum:              323

Satellite: AO-49
Catalog number: 27605
Epoch time:      04225.82434726
Element set:     509
Inclination:       64.5593 deg
RA of node:       352.7883 deg
Eccentricity:    0.0080438
Arg of perigee:   300.4101 deg
Mean anomaly:      58.9071 deg
Mean motion:   14.71909016 rev/day
Decay rate:        9.8e-07 rev/day^2
Epoch rev:            8846
Checksum:              318

Satellite: SO-50
Catalog number: 27607
Epoch time:      04224.87808644
Element set:     490
Inclination:       64.5599 deg
RA of node:       359.5616 deg
Eccentricity:    0.0081593
Arg of perigee:   299.7140 deg
Mean anomaly:      59.6109 deg
Mean motion:   14.70691442 rev/day
Decay rate:       1.38e-06 rev/day^2
Epoch rev:            8824
Checksum:              340

Satellite: AO-51
Catalog number: 28375
Epoch time:      04225.63664796
Element set:      40
Inclination:       98.2569 deg
RA of node:       293.7076 deg
Eccentricity:    0.0085298
Arg of perigee:    82.5572 deg
Mean anomaly:     278.5319 deg
Mean motion:   14.40381181 rev/day
Decay rate:        5.1e-07 rev/day^2
Epoch rev:             619
Checksum:              328

>/EX
SB KEPS @ AMSAT  $ORB04225.W
Orbital Elements  04225.WEATHER

HR AMSAT ORBITAL ELEMENTS FOR WEATHER SATELLITES
FROM WA5QGD FORT WORTH,TX August 12, 2004
SEND SUBSCRIBE/UNSUBSCRIBE TO majordomo@amsat.org ONLY
BID: ORB04225.W
TO ALL RADIO AMATEURS BT

Satellite: NOAA-10
Catalog number: 16969
Epoch time:      04225.37383457
Element set:     349
Inclination:       98.7568 deg
RA of node:       224.4990 deg
Eccentricity:    0.0011839
Arg of perigee:   316.4206 deg
Mean anomaly:      43.6050 deg
Mean motion:   14.27207328 rev/day
Decay rate:        9.2e-07 rev/day^2
Epoch rev:           93104
Checksum:              311

Satellite: NOAA-11
Catalog number: 19531
Epoch time:      04225.44426363
Element set:     208
Inclination:       98.8654 deg
RA of node:       308.9769 deg
Eccentricity:    0.0012565
Arg of perigee:   105.3707 deg
Mean anomaly:     254.8881 deg
Mean motion:   14.14723918 rev/day
Decay rate:        2.5e-07 rev/day^2
Epoch rev:           81927
Checksum:              321

Satellite: NOAA-12
Catalog number: 21263
Epoch time:      04225.81848002
Element set:     691
Inclination:       98.6731 deg
RA of node:       213.0295 deg
Eccentricity:    0.0011778
Arg of perigee:   245.2070 deg
Mean anomaly:     114.8368 deg
Mean motion:   14.25401288 rev/day
Decay rate:       2.00e-06 rev/day^2
Epoch rev:           68835
Checksum:              285

Satellite: MET-3/5
Catalog number: 21655
Epoch time:      04224.90294692
Element set:    0677
Inclination:      082.5586 deg
RA of node:       017.1495 deg
Eccentricity:    0.0012261
Arg of perigee:   290.0017 deg
Mean anomaly:     069.9785 deg
Mean motion:   13.16996858 rev/day
Decay rate:        5.1e-07 rev/day^2
Epoch rev:           62460
Checksum:              327

Satellite: MET-2/21
Catalog number: 22782
Epoch time:      04224.82566507
Element set:     976
Inclination:       82.5498 deg
RA of node:       146.3940 deg
Eccentricity:    0.0020907
Arg of perigee:   271.5326 deg
Mean anomaly:      88.3436 deg
Mean motion:   13.83566589 rev/day
Decay rate:       -2.6e-07 rev/day^2
Epoch rev:           55279
Checksum:              340

Satellite: OKEAN-4
Catalog number: 23317
Epoch time:      04225.39256798
Element set:     424
Inclination:       82.5406 deg
RA of node:       185.2349 deg
Eccentricity:    0.0024420
Arg of perigee:    73.7320 deg
Mean anomaly:     286.6578 deg
Mean motion:   14.81846538 rev/day
Decay rate:       3.54e-06 rev/day^2
Epoch rev:           53017
Checksum:              311

Satellite: NOAA-14
Catalog number: 23455
Epoch time:      04225.81134352
Element set:     238
Inclination:       99.1361 deg
RA of node:       262.3948 deg
Eccentricity:    0.0009858
Arg of perigee:   145.5237 deg
Mean anomaly:     214.7060 deg
Mean motion:   14.13477428 rev/day
Decay rate:        6.8e-07 rev/day^2
Epoch rev:           49602
Checksum:              304

Satellite: SICH-1
Catalog number: 23657
Epoch time:      04224.93800507
Element set:    0247
Inclination:      082.5316 deg
RA of node:       326.4742 deg
Eccentricity:    0.0025922
Arg of perigee:   060.0714 deg
Mean anomaly:     300.3067 deg
Mean motion:   14.80888724 rev/day
Decay rate:       3.34e-06 rev/day^2
Epoch rev:           48218
Checksum:              284

Satellite: NOAA-15
Catalog number: 25338
Epoch time:      04225.78229905
Element set:     694
Inclination:       98.5205 deg
RA of node:       237.4369 deg
Eccentricity:    0.0010613
Arg of perigee:   173.8213 deg
Mean anomaly:     186.3587 deg
Mean motion:   14.24443137 rev/day
Decay rate:       1.18e-06 rev/day^2
Epoch rev:           32485
Checksum:              313

Satellite: RESURS
Catalog number: 25394
Epoch time:      04225.82985880
Element set:     875
Inclination:       98.5786 deg
RA of node:       297.1965 deg
Eccentricity:    0.0001632
Arg of perigee:    15.3076 deg
Mean anomaly:     344.8150 deg
Mean motion:   14.24017360 rev/day
Decay rate:       -5.0e-08 rev/day^2
Epoch rev:           31656
Checksum:              311

Satellite: FENGYUN1
Catalog number: 25730
Epoch time:      04224.99200144
Element set:     205
Inclination:       98.6050 deg
RA of node:       233.2064 deg
Eccentricity:    0.0013600
Arg of perigee:   261.8837 deg
Mean anomaly:      98.0781 deg
Mean motion:   14.11777047 rev/day
Decay rate:        6.3e-07 rev/day^2
Epoch rev:           27088
Checksum:              275

Satellite: OKEAN-0
Catalog number: 25860
Epoch time:      04224.91974546
Element set:    0261
Inclination:      097.7942 deg
RA of node:       257.8450 deg
Eccentricity:    0.0002125
Arg of perigee:   104.2944 deg
Mean anomaly:     255.8501 deg
Mean motion:   14.73097681 rev/day
Decay rate:        5.8e-07 rev/day^2
Epoch rev:           27247
Checksum:              308

Satellite: NOAA-16
Catalog number: 26536
Epoch time:      04225.80436175
Element set:     980
Inclination:       98.9669 deg
RA of node:       177.2578 deg
Eccentricity:    0.0010000
Arg of perigee:   213.9953 deg
Mean anomaly:     146.1052 deg
Mean motion:   14.12140704 rev/day
Decay rate:        9.2e-07 rev/day^2
Epoch rev:           20053
Checksum:              285

Satellite: NOAA-17
Catalog number: 27453
Epoch time:      04225.81520516
Element set:       5
Inclination:       98.6976 deg
RA of node:       297.4594 deg
Eccentricity:    0.0011173
Arg of perigee:   226.3374 deg
Mean anomaly:     133.7363 deg
Mean motion:   14.23557527 rev/day
Decay rate:       1.42e-06 rev/day^2
Epoch rev:           11096
Checksum:              301

>/EX
SB KEPS @ AMSAT  $ORB04225.M
Orbital Elements  04225.MISC

HR AMSAT ORBITAL ELEMENTS FOR MANNED AND MISCELLANEOUS SATELLITES
FROM WA5QGD FORT WORTH,TX August 12, 2004
SEND SUBSCRIBE/UNSUBSCRIBE TO majordomo@amsat.org ONLY
BID: ORB04225.M
TO ALL RADIO AMATEURS BT

Satellite: HUBBLE
Catalog number: 20580
Epoch time:      04225.09951062
Element set:     129
Inclination:       28.4662 deg
RA of node:       122.0461 deg
Eccentricity:    0.0003843
Arg of perigee:   234.9962 deg
Mean anomaly:     125.0269 deg
Mean motion:   14.99249854 rev/day
Decay rate:       7.39e-06 rev/day^2
Epoch rev:           58380
Checksum:              301

Satellite: UARS
Catalog number: 21701
Epoch time:      04224.66733638
Element set:    0245
Inclination:      056.9814 deg
RA of node:       004.5383 deg
Eccentricity:    0.0006894
Arg of perigee:   108.2735 deg
Mean anomaly:     251.9052 deg
Mean motion:   15.03589383 rev/day
Decay rate:      -2.54e-06 rev/day^2
Epoch rev:           70693
Checksum:              300

